K5RG-3 Weather Reports


Display with metric or nautical units.
time (UTC)temp
F
wind
direction
speed
MPH
gust
MPH
rain 1hr
in
rain 24hr
in
rain mn
in
humidity
%
barometer
mb
20220810090109 80 148 0.0 0.0 0.00 0.00 0.00 86 1015.3
20220810084601 80 148 0.0 0.0 0.00 0.00 0.00 86 1015.2
20220810083056 80 148 0.0 0.0 0.00 0.00 0.00 85 1015.3
20220810081633 80 148 0.0 2.0 0.00 0.00 0.00 85 1015.3
20220810080059 80 148 0.0 4.0 0.00 0.00 0.00 85 1015.2
20220810074558 80 167 0.0 3.0 0.00 0.00 0.00 84 1015.3
20220810073127 81 167 0.0 3.0 0.00 0.00 0.00 84 1015.2
20220810071550 81 166 0.0 4.0 0.00 0.00 0.00 84 1015.2
20220810070046 81 166 0.0 2.0 0.00 0.00 0.00 83 1015.2
20220810064603 81 166 0.0 1.0 0.00 0.00 0.00 83 1015.2
20220810063049 82 166 0.0 2.0 0.00 0.00 0.00 82 1015.3
20220810061543 82 166 0.0 4.0 0.00 0.00 0.00 82 1015.3
20220810060057 82 131 0.0 4.0 0.00 0.00 0.00 82 1015.3
20220810054539 82 168 0.0 3.0 0.00 0.00 0.00 81 1015.1
20220810053055 83 148 0.0 3.0 0.00 0.00 0.00 81 1015.1
20220810051535 83 141 0.0 3.0 0.00 0.00 0.00 80 1015.4
20220810050052 83 133 1.0 5.0 0.00 0.00 0.00 80 1015.4
20220810044608 83 150 0.0 3.0 0.00 0.00 0.00 80 1015.3
20220810043037 83 142 0.0 4.0 0.00 0.00 0.00 79 1015.5
20220810041631 84 114 0.0 5.0 0.00 0.00 0.00 78 1015.5
20220810040031 84 110 1.0 4.0 0.00 0.00 0.00 77 1015.4
20220810034531 84 141 0.0 4.0 0.00 0.00 0.00 77 1015.3
20220810033030 84 140 1.0 4.0 0.00 0.00 0.00 77 1015.1
20220810031533 84 156 0.0 5.0 0.00 0.00 0.00 76 1014.7
20220810030040 84 126 1.0 5.0 0.00 0.00 0.00 76 1014.8
20220810024529 85 144 1.0 6.0 0.00 0.00 0.00 75 1014.6
20220810023036 85 131 1.0 7.0 0.00 0.00 0.00 75 1014.7
20220810021527 85 105 1.0 5.0 0.00 0.00 0.00 75 1014.6
20220810020027 85 152 1.0 5.0 0.00 0.00 0.00 75 1014.4
20220810014528 85 148 1.0 5.0 0.00 0.00 0.00 74 1014.5
20220810013026 86 145 2.0 10.0 0.00 0.00 0.00 73 1014.4
20220810011529 86 173 3.0 9.0 0.00 0.00 0.00 71 1014.2
20220810010025 87 114 3.0 11.0 0.00 0.00 0.00 71 1014.0
20220810004524 87 170 3.0 10.0 0.00 0.00 0.00 69 1013.9
20220810003033 88 127 3.0 11.0 0.00 0.00 0.00 68 1014.1
20220810001535 88 152 5.0 10.0 0.00 0.00 0.00 68 1013.7
20220810000029 89 139 3.0 14.0 0.00 0.00 0.00 66 1013.5
20220809234523 90 112 4.0 12.0 0.00 0.00 0.00 64 1013.4
20220809233022 91 156 4.0 13.0 0.00 0.00 0.00 62 1013.4
20220809231534 91 190 3.0 14.0 0.00 0.00 0.00 62 1013.4
20220809230022 92 156 3.0 11.0 0.00 0.00 0.00 61 1013.3
20220809224546 92 119 4.0 13.0 0.00 0.00 0.00 62 1013.5
20220809223020 92 111 5.0 12.0 0.00 0.00 0.00 62 1013.5
20220809221529 92 121 6.0 14.0 0.00 0.00 0.00 61 1013.4
20220809220022 92 119 7.0 15.0 0.00 0.00 0.00 60 1013.4
20220809214518 92 81 3.0 17.0 0.00 0.00 0.00 60 1013.4
20220809213018 92 123 6.0 18.0 0.00 0.00 0.00 61 1013.7
20220809211533 93 102 5.0 12.0 0.00 0.00 0.00 57 1013.9
20220809210036 93 128 4.0 16.0 0.00 0.00 0.00 54 1014.1
20220809204513 94 171 8.0 14.0 0.00 0.00 0.00 52 1014.0
20220809203013 94 124 2.0 17.0 0.00 0.00 0.00 55 1014.2
20220809201510 93 115 8.0 15.0 0.00 0.00 0.00 55 1014.4
20220809200010 93 135 3.0 16.0 0.00 0.00 0.00 56 1014.3
20220809194510 93 99 7.0 15.0 0.00 0.00 0.00 56 1014.8
20220809193008 94 93 5.0 13.0 0.00 0.00 0.00 54 1014.9
20220809191507 94 145 6.0 13.0 0.00 0.00 0.00 53 1015.1
20220809190008 93 96 3.0 14.0 0.00 0.00 0.00 56 1015.2
20220809184505 93 122 3.0 11.0 0.00 0.00 0.00 55 1015.3
20220809183006 94 133 4.0 11.0 0.00 0.00 0.00 54 1015.6
20220809181502 93 92 2.0 11.0 0.00 0.00 0.00 56 1015.7
20220809180059 92 133 4.0 12.0 0.00 0.00 0.00 58 1015.9
20220809174559 92 175 3.0 14.0 0.00 0.00 0.00 59 1016.0
20220809173105 92 101 5.0 9.0 0.00 0.00 0.00 59 1016.1
20220809171555 91 235 0.0 4.0 0.00 0.00 0.00 63 1016.4
20220809170104 90 220 2.0 7.0 0.00 0.00 0.00 65 1016.5
20220809164558 90 83 7.0 13.0 0.00 0.00 0.00 65 1016.6
20220809163052 91 83 10.0 14.0 0.00 0.00 0.00 64 1016.6
20220809161550 90 77 5.0 14.0 0.00 0.00 0.00 65 1016.9
20220809160053 90 93 5.0 12.0 0.00 0.00 0.00 66 1016.8
20220809154551 90 102 0.0 5.0 0.00 0.00 0.00 63 1016.9
20220809153043 91 126 4.0 10.0 0.00 0.00 0.00 62 1016.7
20220809151546 91 103 1.0 7.0 0.00 0.00 0.00 63 1016.7
20220809150043 90 98 0.0 5.0 0.00 0.00 0.00 65 1016.6
20220809144532 89 89 4.0 8.0 0.00 0.00 0.00 64 1016.8
20220809143028 88 98 1.0 6.0 0.00 0.00 0.00 68 1016.8
20220809141526 88 140 0.0 5.0 0.00 0.00 0.00 69 1016.8
20220809140021 87 94 1.0 4.0 0.00 0.00 0.00 73 1016.7
20220809134517 86 163 0.0 4.0 0.00 0.00 0.00 77 1016.7
20220809133012 84 181 0.0 2.0 0.00 0.00 0.00 78 1016.6
20220809131508 83 182 0.0 0.0 0.00 0.00 0.00 81 1016.5
20220809130008 81 182 0.0 0.0 0.00 0.00 0.00 85 1016.3
20220809124508 80 182 0.0 0.0 0.00 0.00 0.00 88 1016.0
20220809123007 79 182 0.0 0.0 0.00 0.00 0.00 88 1016.0
20220809121503 78 181 0.0 0.0 0.00 0.00 0.00 88 1015.8
20220809120100 78 181 0.0 0.0 0.00 0.00 0.00 88 1015.6
20220809114559 78 181 0.0 0.0 0.00 0.00 0.00 88 1015.6
20220809113100 78 181 0.0 0.0 0.00 0.00 0.00 88 1015.3
20220809111606 78 181 0.0 0.0 0.00 0.00 0.00 88 1015.0
20220809110056 78 181 0.0 0.0 0.00 0.00 0.00 88 1014.8
20220809104609 79 181 0.0 2.0 0.00 0.00 0.00 87 1014.5
20220809103055 79 173 1.0 3.0 0.00 0.00 0.00 87 1014.3
20220809101554 79 173 0.0 0.0 0.00 0.00 0.00 86 1014.4
20220809100051 79 173 0.0 1.0 0.00 0.00 0.00 86 1014.2
20220809094554 79 156 0.0 2.0 0.00 0.00 0.00 87 1014.1
20220809093054 80 160 0.0 3.0 0.00 0.00 0.00 86 1014.1
20220809091549 80 167 0.0 4.0 0.00 0.00 0.00 86 1014.2